Regional Weather Roundup
Issued by NWS

Home | Current Version | Previous Version | Graphics & Text | Print | Product List | Glossary On
Versions: 1 2 3 4 5 6 7 8 9 10 11 12 13 14 15 16 17 18 19 20 21 22 23 24 25 26 27 28 29 30 31 32 33 34 35 36 37 38 39 40 41 42 43 44 45 46 47 48 49 50
000
ASUS45 KBOU 241407
RWRCO

WEATHER ROUNDUP FOR COLORADO
NATIONAL WEATHER SERVICE DENVER/BOULDER CO
700 AM MST SAT JAN 24 2015

NOTE: "FAIR" INDICATES FEW OR NO CLOUDS BELOW 12000 FEET WITH NO
SIGNIFICANT WEATHER AND/OR OBSTRUCTIONS TO VISIBILITY.

COZ001>005-013-030-031-241500-
...NORTHWEST COLORADO...

CITY           SKY/WX    TMP DP  RH WIND       PRES   REMARKS
CRAIG          CLOUDY     4   0  83 CALM      30.42R
HAYDEN         MOCLDY    10   5  79 SE12      30.39R WCI  -4
MEEKER         PTCLDY    10   3  73 NW5       30.42R WCI   2
MOUNT WERNER   NOT AVBL
STEAMBOAT SPGS MOCLDY     3  -2  80 CALM      30.40R
WALDEN         CLOUDY    10   3  72 SE8       30.31R WCI  -1
$$

COZ006>008-011-241500-
...WEST CENTRAL VALLEYS...

CITY           SKY/WX    TMP DP  RH WIND       PRES   REMARKS
GRAND JUNCTION PTCLDY    24  12  60 SE15      30.42F WCI  11
MONTROSE       CLEAR     17   8  67 SE8       30.42F WCI   7
EAGLE          MOCLDY     7   5  92 CALM      30.47S
RIFLE          PTCLDY    16   9  74 SW7       30.46R WCI   6
DELTA          CLEAR     17  11  80 CALM      30.45F
NUCLA          CLEAR     21  12  68 SE10      30.41F WCI  10
$$

COZ017>023-064>068-241500-
...SOUTHWEST COLORADO...

CITY           SKY/WX    TMP DP  RH WIND       PRES   REMARKS
DURANGO        MOCLDY    15  11  83 N5        30.36R WCI   8
CORTEZ         CLEAR     18  13  80 E5        30.39R WCI  11
PAGOSA SPRINGS MOCLDY    12  11  95 CALM      30.33R
TELLURIDE      NOT AVBL
WOLF CREEK PAS NOT AVBL
$$

COZ009-010-012-014-032>034-037-058>063-241500-
...CENTRAL COLORADO...

CITY           SKY/WX    TMP DP  RH WIND       PRES   REMARKS
ASPEN          PTCLDY    10   2  69 S7        30.35F WCI  -1
BUENA VISTA    PTCLDY    15   8  71 W7        30.29R WCI   6
COPPER MTN     MOCLDY    18  10  73 W13       30.31F WCI   4
BERTHOUD PASS  FAIR      10   5  79 NW31      30.25S WCI -12
COTTONWOOD PAS PTCLDY    30   3  31 W15       30.27S WCI  19
GUNNISON       PTCLDY    -9 -26  45 CALM      30.48S
KREMMLING      FLURRIES  -4  -8  84 CALM      30.46R
LEADVILLE      MOCLDY     9   3  77 NE9       30.30F WCI  -4
MONARCH PASS   PTCLDY    12   5  73 MISG      30.41R
SALIDA         PTCLDY    26  11  53 NW10      30.35  WCI  16
SUNLIGHT       PTCLDY    21   7  53 W5        30.36R WCI  15
WILKERSON PASS MOCLDY    27 -11  18 NW15G29   30.26S WCI  15
$$

COZ069>075-241500-
...SAN LUIS VALLEY/SANGRE DE CRISTO MOUNTAINS...

CITY           SKY/WX    TMP DP  RH WIND       PRES   REMARKS
ALAMOSA        MOCLDY    -1  -5  82 SW6       30.34S WCI -13
LA VETA PASS   NOT AVBL
SAGUACHE       PTCLDY    12   3  67 N7        30.32F WCI   2
$$

COZ035-036-038>040-241500-
...NORTHERN COLORADO FRONT RANGE...

CITY           SKY/WX    TMP DP  RH WIND       PRES   REMARKS
DENVER INTL AP PTCLDY    32  17  54 SW17      30.05F WCI  21
DMNS CITY PARK   N/A     33  13  44 SW6       30.07F WCI  28
AURORA         PTCLDY    31  16  53 S15       30.07F WCI  20
FRONT RANGE AP NOT AVBL
ERIE MUNI ARPT CLEAR     28  17  64 S8        30.05F WCI  20
BOULDER MUN AP CLEAR     46   9  21 SW10      30.04F
CENTENNIAL     PTCLDY    33  14  45 SW15      30.09F WCI  23
BROOMFIELD     PTCLDY    39   9  28 CALM      30.06F
FORT COLLINS   PTCLDY    27  14  59 CALM      30.06S
LONGMONT       PTCLDY    23  16  75 CALM      30.06F
$$

COZ041-046-047-076>085-087-088-241500-
...PIKES PEAK/PALMER DIVIDE AND SOUTHERN FOOTHILLS...

CITY           SKY/WX    TMP DP  RH WIND       PRES   REMARKS
COLO. SPRINGS  PTCLDY    28  15  58 N9        30.09F WCI  19
A. F. ACADEMY  PTCLDY    26  10  50 NE9       30.10F WCI  17
ELLICOTT       PTCLDY   N/A N/A N/A CALM      30.07F
FALCON         PTCLDY    25  11  55 SW6       30.10F WCI  18
FORT CARSON    PTCLDY    28  16  61 NW3       30.06F
LIMON          PTCLDY    15  13  91 CALM      30.07F
MONUMENT HILL  PTCLDY    27  10  50 W9        30.10S WCI  17
TRINIDAD       PTCLDY    25  16  68 NW8       30.16R WCI  16
$$

COZ042>045-048>051-090-091-241500-
...NORTHEAST COLORADO...

CITY           SKY/WX    TMP DP  RH WIND       PRES   REMARKS
GREELEY ARPT   PTCLDY    18  10  73 N6        30.06R WCI   9
AKRON          PTCLDY    26  21  81 W13       30.05S WCI  15
BURLINGTON     CLEAR     29  23  78 SW7       30.07F WCI  22
WRAY           CLEAR     28  24  88 W12       30.05R WCI  17
STERLING       PTCLDY    27  23  86 S6        30.05R WCI  20
HOLYOKE        CLEAR     28  23  80 W12       30.04R WCI  18
FORT MORGAN    PTCLDY    24  19  83 W9        30.07R WCI  14
$$

COZ086-089-092>099-241500-
...SOUTHEAST COLORADO...

CITY           SKY/WX    TMP DP  RH WIND       PRES   REMARKS
PUEBLO         PTCLDY    22  17  81 W6        30.12F WCI  14
LA JUNTA       PTCLDY    27  21  78 SW10      30.13F WCI  17
LAMAR          CLEAR     25  23  92 SW8       30.12F WCI  16
SPRINGFIELD      N/A     24  19  81 W6        30.15R WCI  17
$$


USA.gov is the U.S. government's official web portal to all federal, state and local government web resources and services.